poseId,Timestamp,Mx,My,Mz
0,1322932450.470017,-0.497000,0.222516,-0.727109
1,1322932792.147677,-0.600222,0.147340,-0.598559
2,1322933070.948529,-0.497469,0.035199,-0.441744
3,1322933193.348370,-0.544715,-0.019961,-0.557541
4,1322933356.247427,-0.426918,0.091958,-0.707712
5,1322933596.045970,-0.478957,0.074916,-0.800602
6,1322933726.395356,-0.512176,0.018945,-0.853240
7,1322933882.670189,-0.524128,0.117360,-0.851037
8,1322934187.192123,-0.442551,0.213372,-0.863174
9,1322934340.166776,-0.229691,0.063232,-0.893819
10,1322934556.341745,-0.190060,-0.176841,-0.976488
11,1322934759.067102,-0.044041,-0.115191,-0.926962
12,1322934971.442541,-0.077554,0.132001,-0.868616
13,1322935673.691298,-0.143832,0.354208,-0.805784
14,1322936040.940247,-0.154615,0.273700,-0.750534
15,1322936306.665262,-0.165068,0.246071,-0.799822
16,1322936475.565420,-0.174321,0.272216,-0.836177
17,1322936707.391244,-0.075004,0.175454,-0.827530
18,1322937037.943618,-0.092341,0.124780,-0.803213
19,1322937318.446081,-0.155617,-0.027996,-0.804505
20,1322937615.346109,-0.146564,-0.012108,-0.804766
21,1322937827.546724,-0.286877,-0.161358,-0.776123
22,1322938059.747517,-0.442753,-0.143120,-0.768339
23,1322938228.298169,-0.546038,0.014739,-0.767559
24,1322938386.248346,-0.545278,0.150037,-0.794795
25,1322938607.171918,-0.544011,0.091704,-0.798164
26,1322938911.796085,-0.457098,-0.044004,-0.816755
27,1322939183.044474,-0.345437,-0.112930,-0.857221
28,1322939447.467475,-0.394713,-0.100989,-0.835977
29,1322939666.241919,-0.475543,0.017241,-0.805704
30,1322940569.842623,-0.514625,0.143367,-0.852631
31,1322940774.142238,-0.520070,0.222163,-0.855553
32,1322941061.942465,-0.533322,0.233781,-0.860988
33,1322941258.342126,-0.450004,0.279483,-0.825398
34,1322941485.891364,-0.230455,0.199498,-0.814306
35,1322941734.591290,-0.179977,0.007062,-0.834867
36,1322941969.090249,-0.268246,-0.107314,-0.854975
37,1322942199.839930,-0.328601,-0.121589,-0.851576
38,1322942473.215187,-0.247328,-0.109375,-0.865890
39,1322942664.341252,-0.154273,-0.066533,-0.861559
40,1322942840.243247,-0.079549,-0.061988,-0.817262
41,1322943027.343607,-0.120415,-0.049018,-0.727531
42,1322943181.744822,-0.193264,-0.040143,-0.735301
43,1322943453.095276,-0.207418,-0.022397,-0.772498
44,1322943613.145653,-0.164304,0.019605,-0.715999
